Theta_e
304 304 304 305 305 305 306 306 305 305 306 306 307 308 308 309 314 319 322 322 321 321 319 318 319 318 319 318 316 316 314 319 327 331 330 330 324 324 323 319 325 329 325 334 346 341 336 340 341 342 344 342 338 338 337 338 339 336 338 330 323 325 327 330 335 335 338 342 342 342 344 345 346 346 343 346 349 349 349 348 348 347 345 347 349 348 348 349
304 304 304 304 304 305 305 305 305 305 305 306 306 307 308 310 316 322 323 323 321 320 319 319 318 317 317 315 315 316 316 322 329 330 328 330 326 321 321 321 324 325 326 341 345 335 336 337 337 341 341 338 335 336 335 335 336 337 335 329 325 331 331 333 336 336 339 340 341 342 342 344 345 345 344 348 351 350 350 350 349 350 348 348 349 349 349 348
303 303 303 303 304 304 305 305 305 305 305 306 306 307 309 311 318 323 325 324 322 320 319 318 317 317 316 314 318 317 320 328 329 326 326 328 325 321 321 322 323 324 328 342 339 332 337 334 337 341 337 336 334 332 333 332 334 333 333 329 330 334 333 336 336 338 338 338 341 341 341 342 342 343 343 347 348 348 351 351 350 350 349 347 347 349 348 349
302 303 303 303 303 304 305 305 305 305 305 306 307 307 309 313 321 324 325 326 323 320 318 318 317 316 315 317 319 318 323 331 325 328 331 325 323 320 321 323 323 322 329 340 333 331 335 332 336 337 335 335 333 333 333 331 333 333 332 332 333 334 334 337 337 338 338 337 340 339 341 342 340 341 343 345 347 347 349 351 350 350 349 346 346 347 349 349
302 302 303 303 303 304 304 304 305 305 305 305 306 307 309 316 324 326 324 325 323 319 318 317 316 315 315 317 317 322 328 326 324 336 330 323 322 319 319 322 322 322 333 339 331 329 331 330 334 337 335 334 331 331 332 332 332 333 333 334 335 335 335 336 337 338 338 339 340 340 342 341 342 344 343 344 348 349 350 348 349 348 347 345 345 347 349 350
302 302 303 303 303 304 304 305 305 305 306 305 307 307 310 320 326 325 324 324 323 319 317 316 315 315 316 317 317 326 332 319 328 337 327 323 320 320 319 320 323 325 334 337 328 328 329 329 334 336 334 333 331 331 330 331 331 333 333 334 336 335 337 337 336 338 338 337 339 338 341 341 344 346 346 348 349 351 349 348 346 347 346 346 348 347 347 348
302 302 303 303 303 303 304 305 305 305 306 305 307 307 313 323 326 324 323 324 322 318 317 316 314 314 315 319 322 329 330 322 332 332 327 327 318 318 321 320 323 329 337 334 327 327 327 331 337 336 333 331 331 330 330 330 330 333 334 335 335 335 337 337 337 338 338 338 339 339 339 342 345 347 347 349 350 349 347 347 345 347 348 347 347 347 345 347
302 303 303 303 303 304 304 304 304 305 305 305 306 307 317 325 324 323 323 323 321 317 316 314 315 314 315 323 331 329 324 326 335 330 325 326 319 318 322 325 326 333 339 332 328 328 328 334 336 335 332 331 330 330 330 330 332 334 334 336 336 336 338 338 338 337 337 338 338 339 341 342 344 345 347 349 349 349 348 346 345 346 347 348 346 346 347 349
303 303 303 303 303 303 304 304 304 305 305 306 306 309 321 326 323 322 323 323 320 317 316 314 314 313 316 325 331 324 325 330 335 332 325 323 322 319 323 331 330 333 335 330 328 327 330 334 335 335 331 330 331 330 330 330 333 333 335 336 336 335 337 337 338 337 338 338 337 340 343 344 342 343 347 349 349 348 348 346 347 346 346 347 347 347 350 349
302 303 303 303 304 303 304 304 305 305 305 306 305 311 323 324 321 322 322 321 318 317 315 314 313 312 318 327 326 322 332 334 332 335 332 328 326 323 327 330 329 332 330 328 328 328 331 334 334 333 330 331 331 330 330 331 333 334 335 336 336 337 337 338 338 338 339 337 338 340 340 342 341 343 347 348 349 348 348 347 347 347 347 347 347 349 353 351
303 303 303 303 304 303 304 304 305 305 305 306 305 313 324 323 319 320 319 317 316 316 314 314 312 313 323 330 325 324 332 335 331 333 336 333 328 326 327 328 327 329 327 328 327 328 333 334 333 332 329 332 330 330 330 332 334 334 335 335 337 336 337 339 340 339 339 338 338 339 341 341 341 343 346 348 348 347 347 348 348 347 348 349 348 348 351 352
303 303 303 303 303 304 304 304 305 305 305 306 305 314 324 320 317 318 317 316 316 315 312 313 311 317 329 329 324 327 329 334 332 332 336 335 329 326 327 328 326 327 327 327 326 330 333 332 333 329 330 330 330 329 331 334 335 335 336 336 337 340 339 339 340 339 339 338 338 338 337 338 342 344 346 346 346 348 349 348 349 349 349 349 349 349 351 352
302 303 303 303 304 304 304 304 304 305 306 306 305 316 324 319 316 317 316 316 316 313 314 316 316 324 333 329 324 327 328 334 332 332 336 335 330 327 328 327 326 327 327 326 326 331 333 333 330 329 331 331 330 330 331 334 334 334 336 337 338 337 337 340 339 340 341 338 340 339 329 331 342 344 345 345 343 347 350 351 350 349 350 349 350 350 351 353
303 303 303 303 304 304 304 304 305 305 306 305 306 317 324 318 316 316 316 316 315 314 318 320 321 329 336 332 328 326 330 336 330 331 334 333 332 327 329 326 326 327 326 327 328 331 332 331 330 330 331 329 331 331 333 335 332 336 335 335 337 328 328 341 340 340 343 339 342 340 324 329 344 343 344 345 342 345 349 351 351 350 351 349 351 352 353 355
303 303 303 303 304 304 304 304 305 305 306 306 306 317 324 319 317 316 316 316 316 315 317 321 324 333 338 333 331 327 332 335 330 331 331 331 329 327 328 326 326 326 325 329 330 332 332 330 330 329 329 329 332 331 334 334 332 338 328 324 332 326 327 341 340 340 343 338 342 340 326 331 344 341 344 345 343 346 346 348 350 351 353 351 353 355 353 356
303 303 303 303 304 304 304 304 305 304 306 306 306 318 323 321 319 317 316 316 316 315 318 329 334 335 336 332 331 328 330 332 330 331 329 330 328 326 326 325 326 325 327 331 330 333 331 330 329 329 329 329 330 331 331 327 326 335 326 317 323 325 326 336 339 340 341 339 340 339 332 335 342 341 342 344 344 344 345 346 347 348 351 353 353 353 354 355
303 303 303 303 304 304 305 305 305 305 306 306 308 319 324 321 321 320 318 316 318 319 324 336 338 333 333 331 328 327 330 331 330 330 329 330 326 324 324 324 327 327 329 332 331 332 330 330 328 329 330 329 330 332 324 315 315 324 326 321 323 327 327 328 335 340 338 340 339 339 340 340 342 340 341 343 343 343 343 345 344 345 347 350 351 350 354 352
303 303 303 303 304 304 305 305 305 305 306 306 311 321 323 322 323 325 324 323 325 328 329 333 333 331 330 328 328 327 330 332 330 330 329 330 328 325 325 325 327 327 328 329 329 332 328 328 328 329 329 328 330 329 318 313 318 318 320 320 320 325 328 327 333 338 339 339 340 340 341 341 341 341 340 342 344 343 341 342 344 345 345 347 349 349 353 351
304 304 304 304 304 304 304 305 305 305 306 307 315 325 327 326 326 328 331 332 333 335 334 334 333 329 327 326 327 327 330 330 328 327 329 330 329 326 325 326 327 326 328 329 329 331 328 329 327 325 324 326 329 329 324 324 327 324 323 323 319 320 325 332 336 337 339 339 339 341 339 342 343 342 340 339 343 343 341 342 342 344 346 346 348 348 350 350
304 303 304 304 304 305 304 305 305 305 306 308 317 327 335 335 334 333 335 334 333 332 330 332 330 328 327 326 326 329 330 329 327 328 327 328 329 326 325 325 327 327 326 328 329 329 329 327 325 323 325 327 328 329 331 330 331 330 327 325 324 321 322 333 338 337 339 337 336 341 340 343 343 342 341 339 341 344 343 342 342 343 344 345 348 349 349 350
304 304 304 304 304 305 305 305 306 305 307 311 318 328 335 332 333 331 332 333 333 331 328 329 329 329 330 327 327 329 330 328 328 328 327 327 328 326 325 326 326 325 326 329 330 330 329 324 324 328 328 328 329 330 330 330 331 330 327 322 322 322 324 333 338 336 339 336 335 342 342 343 345 342 342 338 338 343 343 344 343 343 344 344 347 348 348 349
303 304 304 304 304 305 305 305 306 305 308 315 320 329 331 329 330 330 330 330 330 330 328 329 329 329 328 328 329 328 327 328 327 326 328 327 327 326 326 325 326 326 326 328 329 329 326 323 326 329 329 328 328 330 330 329 329 328 326 322 318 322 326 331 337 336 337 334 333 340 340 341 346 342 342 341 338 340 341 344 344 344 344 346 346 348 348 349
304 304 304 304 305 304 306 306 306 306 311 320 326 329 328 329 329 329 331 331 330 329 327 328 327 328 329 329 329 327 327 327 325 326 328 327 326 326 326 326 326 325 326 327 329 324 319 323 329 328 327 329 328 328 329 328 327 328 325 319 316 323 324 321 330 336 338 334 336 341 338 340 348 345 343 342 339 340 339 340 343 345 345 345 344 346 347 348
303 304 304 304 304 305 306 305 308 313 317 323 324 323 324 327 327 327 329 332 333 330 326 329 327 327 329 329 330 327 325 327 326 327 328 327 326 326 325 327 326 327 326 328 330 326 322 326 330 328 328 329 328 328 329 326 323 325 327 321 319 325 324 323 329 336 335 335 337 339 330 333 345 348 347 345 341 340 339 339 342 343 344 345 344 344 346 347
303 303 304 304 305 305 305 309 318 321 320 319 319 322 325 327 327 327 331 333 331 330 328 328 328 328 329 329 329 326 326 327 326 327 329 328 327 326 327 327 325 326 326 328 328 328 328 328 328 329 329 329 328 328 328 325 319 320 326 327 326 327 327 327 332 331 323 323 332 334 321 323 342 350 350 348 345 343 341 341 342 344 347 345 345 345 345 346
303 303 304 304 305 304 306 315 321 316 315 319 323 327 328 328 328 328 334 331 324 326 330 327 326 327 329 329 327 326 324 325 327 327 329 329 328 329 327 326 326 326 327 330 328 327 327 328 328 329 328 329 328 326 328 328 319 315 323 330 329 330 329 326 329 324 315 317 329 334 322 318 332 344 349 347 345 347 346 346 345 346 349 347 347 347 346 346
303 303 304 304 305 306 311 317 314 312 316 322 323 326 326 326 329 330 333 324 317 323 330 326 326 327 328 329 327 325 321 324 327 327 327 327 328 328 327 327 326 325 329 327 321 322 329 328 327 329 329 328 326 323 328 330 320 317 327 330 329 328 328 326 327 321 318 321 327 332 326 318 319 333 348 346 343 348 349 348 346 346 348 348 348 349 347 346
303 303 304 305 305 307 310 314 313 315 318 319 320 322 322 325 331 333 329 320 320 326 331 325 326 327 328 329 326 324 324 324 326 326 328 328 327 327 326 326 327 327 331 325 315 320 329 328 327 328 327 326 324 325 329 330 324 324 333 332 328 329 328 328 325 321 322 320 315 323 328 319 315 326 343 345 341 344 349 347 346 346 348 348 347 347 347 347
303 303 304 305 305 310 314 314 316 317 315 319 319 320 320 325 332 333 327 322 326 325 328 324 326 326 327 328 326 325 326 326 325 326 328 326 327 329 326 326 328 326 328 326 321 324 328 329 328 328 327 325 326 329 331 328 327 329 333 331 330 329 328 330 326 320 320 317 312 317 323 319 316 320 329 336 335 341 349 348 346 345 345 347 346 345 346 346
303 303 305 306 308 314 317 316 318 315 315 320 319 319 320 325 332 327 321 324 325 324 326 324 325 326 328 326 325 325 327 325 326 327 327 326 327 328 326 327 327 326 328 328 326 329 330 329 329 328 327 328 329 330 329 330 330 331 332 329 329 329 330 330 327 322 317 315 315 317 319 320 317 318 323 331 335 341 346 345 346 346 344 348 346 344 345 347
303 304 305 306 309 313 314 316 317 318 321 322 320 317 321 329 331 320 319 326 322 323 325 323 325 326 327 326 324 326 326 326 327 326 326 326 326 327 326 325 325 324 323 324 326 329 329 328 329 329 328 330 331 329 330 329 329 331 332 328 322 321 324 322 320 319 315 313 316 318 320 318 314 318 326 335 340 340 340 339 344 347 347 348 348 346 345 348
304 303 306 308 309 310 312 314 315 319 321 321 319 317 322 328 325 317 322 324 317 321 325 324 326 326 326 327 326 326 326 326 327 325 326 326 325 326 324 325 325 319 313 315 320 324 326 329 329 329 329 330 329 327 327 328 330 331 327 321 315 314 316 315 313 316 314 313 316 319 319 316 314 322 331 336 338 337 337 337 339 346 349 350 350 348 345 348
304 304 306 307 309 309 310 309 309 311 314 317 317 318 323 323 319 317 322 321 317 323 326 325 326 326 327 325 325 326 325 326 326 326 327 325 326 325 323 326 328 321 315 315 316 314 318 326 329 329 328 330 330 324 319 322 326 327 322 316 313 313 314 314 313 314 314 312 316 321 320 315 315 324 333 335 334 335 336 336 336 341 349 350 351 350 347 349
304 305 307 309 312 311 309 310 314 314 315 317 315 318 322 320 321 322 322 323 324 326 326 325 325 327 325 325 326 326 324 324 327 327 325 324 323 322 323 326 328 329 325 319 315 312 311 316 323 327 326 328 329 327 324 326 326 327 328 324 316 313 314 313 312 312 313 312 314 319 319 313 313 323 335 336 334 335 334 336 338 337 341 349 351 351 348 348
305 307 312 316 317 316 314 315 318 319 319 318 316 319 319 317 320 322 323 325 327 329 328 325 327 324 323 326 326 326 325 323 326 326 325 324 321 323 324 325 327 330 326 317 316 317 311 312 325 329 328 328 328 329 331 329 323 326 330 324 316 317 317 313 312 313 312 312 314 315 317 318 323 332 340 337 334 335 334 336 339 337 338 343 350 353 349 348
309 314 317 320 323 323 320 317 320 321 320 321 319 318 319 322 323 324 326 327 327 330 327 324 324 320 316 321 325 327 325 324 326 325 323 325 324 325 326 327 328 330 327 321 319 318 310 314 329 330 327 329 328 329 331 325 321 323 322 317 319 327 324 313 311 313 312 311 313 313 314 320 325 330 335 337 335 336 337 337 336 340 344 343 348 353 350 347
315 318 320 321 322 324 323 321 322 321 320 321 319 319 324 328 329 326 330 329 327 330 328 319 319 318 313 315 320 325 325 323 325 322 319 323 324 325 328 328 328 328 329 327 323 323 317 314 327 331 326 329 330 329 330 328 326 323 316 319 326 329 326 318 312 313 313 312 313 311 312 315 315 320 332 337 336 335 337 337 335 340 347 347 346 352 353 350
317 319 322 323 322 322 324 322 323 321 319 319 320 323 327 329 328 328 328 330 328 330 329 319 320 320 317 314 317 325 324 319 321 321 319 320 321 325 330 329 328 328 330 328 325 328 324 313 321 331 327 327 331 328 324 326 330 326 323 327 327 317 316 316 313 313 314 313 314 312 312 314 312 318 331 335 334 335 337 338 336 337 344 348 347 349 353 354
319 322 325 325 322 323 325 323 324 321 317 318 321 324 326 327 328 328 328 329 329 330 329 325 324 323 321 319 319 324 324 319 321 321 318 319 320 325 329 328 328 328 329 330 328 328 328 316 314 328 330 328 328 324 318 319 327 328 328 329 328 319 316 316 315 314 313 313 314 312 312 313 317 326 333 335 335 336 335 337 337 335 338 345 348 349 353 355
322 322 323 325 325 325 326 325 324 322 318 318 321 323 325 326 328 328 328 328 329 329 329 329 329 325 324 324 323 324 326 322 323 322 319 323 322 324 329 329 328 329 328 330 329 328 329 321 312 323 330 324 322 323 320 321 323 323 320 320 321 321 321 319 318 315 314 313 312 313 312 313 323 334 335 334 335 334 335 337 338 336 336 341 348 351 352 356
320 321 322 324 324 325 326 325 323 321 318 321 322 322 325 327 327 328 329 327 328 329 329 329 331 329 325 326 324 325 327 324 324 324 322 323 322 322 328 329 329 330 328 328 329 328 327 322 314 315 320 316 319 327 328 326 328 324 321 319 319 320 317 315 315 315 314 312 311 313 312 314 326 336 335 334 334 332 335 336 335 338 336 338 346 351 352 357
321 320 322 324 323 324 326 324 321 321 320 321 322 323 327 329 328 327 327 328 327 327 328 329 329 330 330 328 326 328 326 323 323 323 322 324 325 325 327 330 329 329 328 328 328 328 327 325 317 312 318 322 326 330 328 327 331 329 327 326 326 324 317 311 311 313 314 313 313 314 311 316 331 337 333 334 336 332 335 336 334 338 338 341 347 350 353 359
323 321 322 324 323 325 326 324 322 321 321 321 322 322 326 329 329 328 327 326 327 327 327 329 329 329 331 330 329 329 326 324 324 325 324 326 327 327 328 330 328 328 329 328 327 328 328 325 316 313 320 326 328 330 328 330 330 327 327 330 328 326 322 319 319 319 315 313 314 314 311 318 339 344 335 336 337 335 336 336 335 337 338 341 348 351 356 360
320 321 322 323 323 324 326 326 324 322 321 322 322 324 326 328 328 328 327 326 327 326 327 327 329 328 330 330 329 330 326 322 322 324 327 326 327 329 328 328 328 328 327 327 328 326 322 321 318 312 314 317 319 323 324 325 327 325 327 330 329 329 329 326 324 323 318 314 315 315 311 319 341 348 340 338 337 334 335 335 336 337 337 341 348 356 360 361
321 322 320 320 323 323 324 326 326 326 324 324 324 326 327 328 327 327 327 327 326 327 326 326 328 327 330 330 329 330 329 323 323 326 327 326 328 328 326 328 329 327 327 334 339 330 322 325 321 312 310 312 312 314 316 319 323 324 326 329 330 329 328 324 319 317 315 315 316 315 312 320 340 345 338 338 338 336 336 336 335 337 339 342 349 357 361 364
323 326 321 319 320 321 323 324 325 327 329 328 326 326 327 328 326 325 325 325 326 326 325 326 327 328 328 329 330 330 331 327 326 326 326 327 329 327 328 329 325 329 344 348 341 332 327 329 327 319 315 314 313 319 326 326 321 319 322 325 328 330 330 325 317 312 315 316 315 317 319 321 332 339 339 337 337 337 337 336 337 337 340 344 353 359 361 365
323 327 326 323 321 321 322 323 324 327 329 329 328 329 328 326 326 325 326 326 325 326 326 326 326 328 327 330 331 329 329 329 329 329 328 327 329 328 329 327 324 345 362 348 330 331 329 323 327 327 324 322 324 328 332 329 323 319 321 322 324 329 329 323 316 316 322 317 312 321 327 321 326 336 337 334 337 338 337 337 337 338 339 342 352 359 361 363
324 325 326 325 325 325 323 323 325 326 326 329 329 329 329 326 326 327 326 326 325 326 327 326 326 326 328 329 330 329 329 328 327 329 329 328 328 330 330 327 327 346 352 332 324 333 329 320 324 327 324 327 331 329 330 330 327 325 324 324 325 327 325 322 320 324 327 318 315 326 331 326 329 336 334 335 337 337 336 337 337 338 338 338 348 357 360 361
322 322 323 324 325 327 327 327 328 328 328 329 329 329 329 328 327 327 327 328 327 326 328 327 327 326 328 330 331 333 334 329 326 330 336 335 331 329 332 329 329 334 334 327 328 334 326 322 329 328 323 325 329 329 330 329 325 326 326 326 328 327 326 326 326 328 329 324 325 332 333 333 336 337 335 335 337 336 336 336 335 336 337 336 343 355 358 358
318 320 320 322 324 326 327 328 328 328 328 328 329 329 327 328 328 327 328 328 328 328 329 329 329 327 329 332 332 335 337 336 334 337 341 339 333 330 332 330 329 332 331 329 331 330 324 323 331 330 319 320 326 328 327 328 327 323 324 328 330 327 326 327 328 329 329 327 330 334 329 331 337 337 335 336 339 340 337 336 336 335 335 336 340 348 355 357
315 318 318 320 325 327 326 325 326 326 326 327 328 328 327 328 328 328 328 327 327 331 331 330 330 332 331 333 333 334 334 335 336 336 337 337 334 334 335 332 331 332 332 331 330 330 329 327 330 328 316 315 324 326 325 329 326 320 320 324 326 325 325 326 328 330 329 327 330 328 323 329 336 335 335 337 338 339 336 335 336 334 334 340 342 343 350 354
313 316 317 318 323 327 325 325 325 325 326 327 328 328 328 328 328 327 328 327 326 328 329 329 330 331 332 334 334 333 330 330 331 331 331 333 333 334 335 333 332 331 333 332 331 332 335 330 326 324 316 315 323 326 325 324 319 314 319 324 327 327 328 328 330 331 333 332 329 325 326 332 336 335 335 338 336 335 334 334 337 339 343 347 347 345 346 350
Wind_Speed
24 25 25 25 25 26 26 27 27 26 25 26 26 27 28 28 26 23 22 20 17 15 15 16 17 16 15 14 12 11 9 7 8 10 13 13 8 8 10 9 13 14 10 8 9 9 9 9 9 7 6 5 4 3 5 5 6 6 3 2 3 4 7 7 7 8 10 11 10 10 9 9 10 10 9 9 9 8 9 9 9 10 13 17 21 24 22 21
25 25 25 25 25 26 26 27 27 27 26 26 27 28 29 29 26 23 21 20 18 15 14 15 15 14 12 10 9 7 7 7 11 16 19 17 11 11 11 10 15 15 12 12 12 12 10 8 7 6 6 5 4 3 4 5 6 6 1 3 4 7 8 8 9 10 11 10 10 10 9 9 9 10 8 7 9 8 10 11 12 15 16 19 23 24 21 20
25 25 26 26 25 26 26 27 28 28 27 27 27 28 29 29 26 22 21 20 18 15 14 14 12 11 8 7 5 3 5 9 14 18 20 20 18 14 11 13 16 15 15 13 12 12 11 6 5 6 6 6 4 5 6 5 5 4 2 3 6 8 9 10 10 11 12 10 11 10 9 9 8 7 6 7 10 8 9 11 13 15 17 18 20 21 21 19
25 26 26 26 26 26 26 27 28 28 28 27 28 29 30 29 26 22 20 19 17 14 13 11 9 7 4 3 2 0 5 10 12 11 12 15 17 17 15 15 17 17 16 13 10 12 12 7 6 7 8 6 5 6 7 6 4 2 3 4 8 8 8 10 11 12 11 10 10 10 9 9 7 5 6 9 9 8 9 10 13 16 18 19 18 19 20 18
26 26 26 26 26 26 26 27 28 29 29 29 29 29 30 28 25 22 20 18 14 12 10 8 6 4 2 1 1 0 6 7 1 3 7 13 15 17 18 17 18 18 16 14 10 11 12 10 9 8 9 6 7 6 5 6 5 2 8 6 8 9 9 9 11 12 10 10 10 9 9 9 8 6 4 5 6 6 8 11 14 17 18 19 18 18 18 17
26 27 27 27 27 27 27 27 28 29 29 29 29 30 29 27 24 21 20 16 11 10 8 6 4 2 1 1 2 2 8 4 5 6 4 12 17 17 17 17 20 19 15 14 11 12 12 10 10 8 9 6 8 7 5 5 5 1 7 5 8 11 10 10 10 10 10 9 9 9 9 9 10 10 9 8 9 9 11 14 17 17 18 19 18 17 16 16
26 27 27 28 28 28 27 27 28 29 30 30 30 30 28 25 22 20 18 13 9 8 7 5 3 2 2 2 1 4 11 9 3 5 1 10 20 17 17 19 20 18 15 15 13 12 11 11 11 9 9 6 7 6 6 4 4 4 7 7 10 12 11 10 10 9 10 10 9 9 10 10 11 11 10 11 12 12 14 16 17 18 19 19 16 15 15 15
26 27 28 29 29 29 28 27 28 29 30 30 30 29 27 23 21 19 16 10 7 6 6 5 2 3 3 2 4 7 11 7 7 9 2 8 21 20 18 18 18 17 16 16 14 12 10 12 12 9 9 5 6 4 6 7 4 6 7 9 10 11 10 10 10 11 11 9 9 10 11 12 13 12 11 12 13 13 15 16 17 17 17 16 15 15 14 13
26 28 29 29 30 30 29 28 28 29 30 30 31 29 25 21 20 17 12 7 6 6 6 5 4 4 5 4 8 8 5 6 11 8 2 8 19 22 19 17 19 18 16 16 16 14 11 11 11 10 8 4 7 6 7 9 5 8 7 9 10 12 10 10 11 11 11 8 9 12 13 14 13 12 11 11 12 14 15 16 16 16 16 15 14 14 13 12
27 28 29 30 30 31 30 29 28 29 30 30 31 28 22 20 18 14 9 5 4 5 5 5 4 6 6 6 10 7 4 9 8 7 5 10 19 22 20 19 20 19 16 15 15 14 11 10 9 7 7 4 7 8 8 7 8 10 9 11 11 12 9 10 12 11 11 10 10 12 13 13 11 10 9 11 12 13 15 15 15 14 14 14 13 13 12 12
27 28 29 30 30 31 31 30 29 29 30 30 31 27 20 17 15 11 6 3 4 5 5 4 5 8 7 9 10 5 6 5 6 7 8 14 21 22 21 19 19 19 16 14 14 14 12 8 5 5 4 4 8 10 6 5 12 11 11 12 11 11 9 10 11 9 9 10 11 12 13 11 9 10 10 11 11 12 14 14 14 14 13 13 13 13 10 11
28 29 30 30 31 31 32 32 30 29 29 30 30 25 18 15 13 9 4 2 4 4 2 2 7 7 6 9 11 3 5 3 6 7 10 16 20 21 21 18 18 20 16 13 13 13 11 5 7 10 4 7 8 7 6 8 11 11 11 11 12 11 9 9 9 8 7 8 11 11 11 11 9 11 13 13 12 11 12 13 13 12 12 12 13 11 9 10
29 30 30 30 31 31 32 32 31 30 29 30 30 23 16 13 11 7 3 2 3 2 1 3 5 5 8 8 9 4 3 2 7 8 11 16 17 18 18 16 17 18 15 14 12 11 9 5 10 12 6 8 7 6 8 11 10 11 11 9 10 10 8 9 7 8 8 8 8 6 4 9 10 12 14 13 13 12 11 12 12 11 11 11 11 10 10 11
30 30 31 31 31 31 32 32 32 31 29 30 29 21 14 11 9 7 3 2 2 1 3 3 2 5 9 5 4 5 2 2 7 10 13 16 16 16 16 14 15 16 15 14 11 10 9 8 10 8 7 9 5 7 9 11 8 11 11 8 7 7 8 11 9 9 9 6 5 4 2 6 10 12 13 12 14 14 11 11 11 11 11 10 11 10 10 11
30 31 31 31 32 31 31 32 32 32 29 30 29 20 13 10 7 6 4 2 1 3 3 5 6 6 8 6 5 5 4 5 9 12 14 17 17 15 16 16 15 16 15 10 8 8 9 10 10 8 7 5 6 9 9 8 8 9 9 8 8 5 8 12 10 10 9 6 7 5 3 6 10 12 12 11 13 14 12 12 11 10 11 10 10 10 10 11
31 31 32 32 32 31 31 32 33 33 30 30 28 19 11 9 6 5 4 1 2 4 4 5 7 9 8 2 8 8 7 9 12 13 14 16 17 16 18 18 16 16 14 8 7 9 10 11 10 9 9 6 8 11 8 7 8 7 7 7 8 6 7 11 10 9 9 9 8 5 4 7 10 12 13 12 13 14 13 13 13 11 11 10 9 9 10 10
31 32 32 32 33 32 31 32 33 33 30 30 27 17 10 8 5 5 4 2 2 4 6 7 7 8 8 2 6 10 10 10 12 14 14 15 17 19 19 16 14 14 13 10 9 10 10 10 8 6 8 8 10 10 8 9 8 8 8 6 8 9 7 9 11 10 7 7 7 4 5 8 11 12 13 13 12 12 12 13 14 12 11 11 9 9 10 10
32 32 32 33 33 33 31 31 33 33 32 29 22 14 10 7 4 4 4 3 4 5 8 10 8 6 7 8 9 12 13 11 12 14 14 14 15 19 20 15 13 15 13 11 10 11 10 9 7 6 9 9 11 10 8 9 8 8 9 7 9 9 7 7 8 10 9 6 7 4 6 10 12 12 13 13 12 10 11 11 12 13 12 12 10 10 11 10
32 32 33 33 33 33 31 31 33 32 33 27 16 14 10 4 4 6 9 8 7 6 4 5 9 4 2 9 12 11 14 13 12 13 15 15 13 17 21 16 14 15 13 10 12 13 10 8 8 9 9 10 13 12 10 11 11 10 10 9 9 8 7 8 8 11 11 8 6 5 6 11 12 12 13 13 12 9 10 11 10 11 12 11 10 10 11 11
32 32 33 33 34 34 32 31 31 33 32 22 12 11 7 3 3 4 8 11 10 11 10 3 12 9 2 8 11 9 12 13 12 13 17 17 15 18 19 15 14 14 12 12 13 13 11 9 10 10 10 13 15 13 15 14 8 10 11 9 11 10 9 11 10 11 12 8 6 6 6 11 12 12 13 13 12 11 11 11 10 11 11 10 11 10 12 11
33 33 33 33 34 34 32 31 31 33 28 15 7 8 7 6 6 3 3 10 14 15 15 10 12 11 3 5 11 11 10 11 13 14 17 19 17 17 14 14 14 12 13 16 13 12 12 10 11 13 13 14 14 14 17 13 6 6 10 9 10 9 9 13 12 11 11 8 6 7 7 10 12 12 13 13 12 12 11 11 11 12 11 10 11 12 11 10
33 33 34 34 34 34 34 30 31 33 22 8 6 10 7 8 7 9 10 10 10 13 14 12 13 10 5 4 9 13 12 12 14 14 17 19 17 15 13 14 14 12 15 16 12 12 11 11 13 16 14 13 14 15 15 9 7 8 9 9 9 7 8 12 12 10 9 6 5 8 7 8 11 12 12 13 12 11 12 12 11 12 12 11 11 12 12 11
33 33 35 34 34 36 33 30 32 29 14 7 10 13 9 7 6 10 10 9 10 12 13 13 14 11 10 10 9 14 15 13 15 15 19 19 17 15 14 15 15 14 15 16 14 11 10 11 14 16 16 14 14 14 12 8 8 9 8 8 8 8 9 8 9 11 10 7 6 8 8 7 10 11 11 12 12 11 13 14 13 12 11 12 12 11 12 12
33 34 34 34 36 35 32 32 28 15 6 8 16 18 11 6 6 10 9 9 10 10 12 13 13 11 12 11 11 15 14 12 14 15 20 19 16 15 14 15 16 14 14 18 18 13 12 13 15 16 15 11 10 11 11 9 8 9 11 9 8 10 9 5 8 11 10 9 8 7 7 7 9 10 10 10 11 11 13 14 14 13 12 12 12 12 12 13
33 34 35 35 35 34 34 28 14 6 7 12 18 15 9 5 4 8 7 7 9 8 12 13 11 11 13 12 13 15 13 12 14 15 19 19 16 13 12 12 12 13 16 19 16 11 12 15 17 17 13 11 12 11 12 11 8 9 13 12 11 12 10 9 12 11 8 9 10 9 6 6 10 10 9 9 11 11 11 12 14 13 13 13 12 13 13 13
34 34 35 35 33 36 31 13 7 16 18 14 9 4 4 4 4 5 5 6 7 7 12 12 9 11 15 13 13 14 13 13 13 16 20 21 18 12 10 9 9 13 16 15 11 8 10 16 18 15 11 14 15 12 12 13 10 7 12 13 13 11 7 9 13 11 6 7 11 13 8 5 8 10 11 11 12 13 11 13 14 13 13 13 12 13 13 13
34 33 35 34 32 34 21 8 16 23 14 6 5 5 5 5 4 2 3 7 6 8 12 11 8 12 15 13 14 14 11 11 13 17 20 21 19 12 11 11 10 11 11 10 8 9 11 15 16 13 12 14 13 11 12 14 11 3 7 15 12 11 9 9 8 9 8 9 10 14 10 8 6 9 14 15 14 15 14 15 15 15 16 15 14 14 14 14
33 34 35 33 31 27 14 14 19 16 11 9 9 9 8 6 5 3 4 7 4 7 9 8 6 10 13 13 16 15 10 12 14 15 20 22 19 12 12 13 12 12 11 10 10 10 11 12 14 15 14 12 11 12 13 15 12 2 2 8 11 9 11 11 8 6 10 11 7 9 8 8 6 7 12 15 14 15 16 16 16 17 18 18 17 16 16 15
34 34 33 35 32 19 8 12 14 15 16 13 11 11 11 10 9 4 5 6 3 5 5 6 6 9 13 13 17 18 12 13 12 12 19 22 18 12 11 12 14 14 12 13 12 11 11 12 14 15 13 11 13 16 16 17 13 2 0 4 5 7 10 10 8 7 10 10 6 8 10 7 7 8 10 11 11 13 13 13 15 17 18 18 17 17 17 15
34 34 33 35 29 13 8 14 20 19 18 15 13 13 13 11 8 6 7 4 4 6 5 6 9 13 16 14 16 18 14 13 12 12 16 17 17 14 11 9 12 13 11 14 14 9 11 13 12 13 13 13 15 13 10 13 8 2 5 6 5 8 8 6 7 7 8 7 7 12 14 10 7 8 9 10 10 10 10 12 15 18 19 19 18 17 17 16
35 34 32 33 27 14 11 12 12 10 10 10 11 11 12 8 6 8 6 2 3 7 9 9 13 15 18 17 15 16 14 13 15 16 15 14 15 14 10 8 9 11 11 12 13 7 8 12 9 12 13 11 11 10 5 7 6 4 7 8 7 7 5 4 6 6 7 8 9 15 17 14 9 8 7 9 12 11 11 13 16 18 19 18 17 17 17 16
35 34 31 32 27 18 15 12 7 8 8 10 10 8 8 7 8 9 6 2 2 7 9 12 15 16 19 19 16 16 15 13 15 17 16 14 13 13 13 10 9 11 11 11 12 9 9 12 12 13 12 9 9 11 8 9 9 9 9 8 7 6 5 6 7 7 7 8 9 12 13 11 8 8 9 8 11 14 12 10 11 15 19 18 18 17 16 15
35 34 31 27 21 18 21 19 17 16 14 13 10 6 7 8 8 9 10 6 4 6 7 12 16 16 19 17 15 17 16 12 15 16 17 16 14 14 16 16 13 11 10 11 11 9 9 13 17 15 11 12 12 9 9 9 10 11 10 8 8 7 6 7 7 6 8 9 9 9 8 7 6 7 10 10 8 7 8 8 8 9 15 18 18 17 16 16
35 33 29 22 18 20 22 20 17 14 12 11 7 6 9 10 8 8 12 10 5 4 5 12 15 17 19 16 14 17 14 12 17 17 17 17 14 13 15 17 19 14 10 12 11 9 10 11 15 14 11 14 16 11 9 10 10 10 10 9 8 7 7 6 6 7 7 7 8 9 5 6 6 1 2 3 2 4 4 7 7 6 9 14 17 17 17 17
34 28 23 18 18 19 17 16 14 10 8 9 7 8 11 9 8 9 10 10 7 6 7 10 13 15 16 15 15 19 14 11 17 17 15 15 13 13 14 15 20 18 11 10 9 9 11 10 14 16 13 16 18 14 11 10 9 9 9 9 8 8 7 6 7 7 6 5 4 7 4 6 4 3 2 2 3 3 4 5 8 8 9 11 14 17 16 16
29 23 18 15 16 14 11 11 12 11 10 9 8 9 10 8 9 9 5 5 4 7 10 9 11 13 13 12 14 19 17 12 16 16 12 16 16 15 17 14 18 21 15 9 8 9 10 10 17 19 16 18 19 16 12 10 8 7 8 10 10 9 8 7 8 8 7 7 5 5 6 7 5 5 10 10 6 6 4 5 8 8 10 12 12 15 15 16
23 19 15 15 14 12 12 12 12 12 10 9 9 10 10 10 12 11 3 4 7 5 7 8 10 12 12 12 12 18 18 13 15 15 11 15 15 16 19 16 17 21 19 13 8 8 9 7 17 20 15 16 18 17 14 13 11 8 7 9 9 6 5 6 6 6 7 8 7 7 8 6 5 4 9 11 7 8 8 7 7 7 9 10 11 13 15 17
19 15 14 16 14 12 15 13 12 11 8 8 11 12 12 12 13 12 4 3 7 6 7 7 9 12 13 12 12 17 18 13 14 14 12 12 13 16 20 16 17 21 21 17 9 7 10 6 13 19 16 14 15 15 13 12 14 11 4 5 8 6 5 5 5 5 6 6 6 8 8 6 6 4 8 9 6 7 8 8 6 7 9 10 10 12 15 16
15 11 8 8 11 13 15 14 12 10 8 10 11 10 12 14 14 11 5 5 8 6 8 11 8 12 14 13 12 15 17 14 13 12 11 10 11 17 20 14 17 22 22 18 10 6 10 7 7 15 17 14 11 11 11 10 12 12 8 4 6 6 6 6 5 6 6 6 6 6 6 4 4 4 10 10 5 3 3 5 4 7 8 9 10 10 12 14
10 7 2 10 12 12 15 13 10 8 9 11 11 9 12 14 13 11 8 8 8 6 8 11 8 10 14 15 14 14 16 16 14 12 11 12 13 17 20 16 15 20 21 20 14 7 7 7 6 11 16 13 9 10 12 10 11 11 9 7 7 6 5 4 5 7 7 6 5 6 5 1 3 5 8 9 5 2 0 2 4 5 7 8 10 10 11 13
7 7 2 10 11 14 16 10 8 9 10 11 12 13 13 11 11 13 12 9 8 7 8 10 9 8 9 13 15 13 14 15 15 12 11 14 13 12 16 17 13 15 17 17 14 9 6 7 7 8 11 10 10 13 16 16 14 12 10 10 9 8 7 6 6 8 7 7 5 6 6 2 7 5 6 7 4 4 2 2 4 4 5 6 9 10 11 12
7 6 4 11 13 17 13 8 8 9 10 10 11 14 9 4 8 13 12 10 10 9 9 10 9 10 9 10 14 13 12 14 16 14 11 15 15 11 14 18 16 15 14 13 14 12 8 6 8 9 9 9 13 17 19 21 18 13 12 12 10 10 8 7 7 7 7 7 6 6 6 2 7 5 6 7 4 3 4 2 3 3 3 5 7 9 11 12
6 5 4 12 14 14 9 8 10 10 10 11 13 15 10 5 9 13 12 12 11 9 9 10 9 10 10 10 12 14 13 13 15 17 14 15 18 16 16 19 19 17 12 10 13 13 9 7 8 9 8 10 13 15 17 18 15 12 11 12 12 12 10 9 8 5 4 6 6 6 7 3 5 4 6 7 3 3 4 3 3 2 2 5 7 8 10 12
6 8 3 10 15 13 8 8 10 10 11 13 15 14 11 8 9 12 13 13 11 9 10 10 10 11 10 10 12 14 14 12 14 18 16 13 15 16 16 18 18 16 12 10 10 10 8 8 8 9 8 10 10 9 11 13 12 10 10 12 13 15 15 14 9 3 4 8 8 8 6 3 5 4 6 6 3 2 4 5 3 2 2 4 6 7 9 11
6 7 5 8 12 11 9 9 9 9 11 15 16 14 13 11 11 13 14 12 11 10 9 9 9 10 9 10 11 13 14 12 12 14 16 13 9 11 14 16 15 15 12 10 10 10 9 8 9 9 10 11 11 9 9 10 10 10 13 15 16 17 17 14 9 6 6 8 10 10 6 4 8 7 6 5 2 2 2 4 3 2 3 4 5 7 9 10
5 5 5 7 9 8 9 10 10 9 8 12 13 13 14 13 12 13 12 12 12 10 9 8 9 9 10 11 12 13 14 16 14 12 15 16 9 9 12 14 15 14 6 2 8 9 7 8 11 12 13 12 9 9 10 11 11 13 17 19 18 18 18 14 10 8 7 7 9 9 7 4 7 8 6 4 2 3 4 4 4 3 4 5 6 8 9 10
5 5 3 3 6 8 9 10 11 10 8 8 7 9 13 13 12 11 10 10 11 9 9 10 11 11 11 12 12 12 14 16 15 12 14 18 12 11 10 12 14 10 5 2 8 8 6 10 14 16 18 17 13 12 16 17 17 17 19 21 21 20 19 16 14 12 8 8 10 8 8 11 10 9 8 4 1 4 6 6 6 6 5 6 7 9 11 12
5 5 4 3 3 6 7 7 9 11 11 8 4 5 10 12 12 10 9 8 9 8 8 10 13 14 13 10 8 10 13 15 16 13 11 15 14 10 10 12 14 10 6 9 11 7 7 10 13 15 18 19 19 20 20 18 17 17 18 20 21 21 19 17 17 17 13 10 10 6 7 11 13 11 10 8 5 6 7 7 6 7 8 8 9 11 12 13
6 5 4 5 6 7 5 3 4 9 10 7 5 7 9 11 12 9 5 6 9 9 7 10 14 15 12 9 7 8 8 8 12 13 7 10 14 10 8 10 12 11 11 13 11 9 9 9 11 16 18 19 22 24 22 15 12 15 18 20 20 20 20 19 18 19 18 14 11 9 9 10 10 11 10 8 7 6 6 7 8 9 10 9 9 11 12 13
6 5 5 8 8 8 7 4 4 7 8 6 6 7 9 11 11 7 4 6 8 7 5 9 12 9 6 8 10 7 2 6 4 4 5 8 8 9 6 9 10 11 13 12 10 12 10 8 13 16 14 15 21 24 19 13 14 19 21 21 20 19 20 20 18 17 17 14 11 10 11 10 8 11 11 5 3 4 6 8 9 9 10 9 9 11 11 12
10 7 5 7 7 5 6 6 5 7 7 7 8 8 10 11 7 4 4 6 6 3 1 5 7 6 7 11 10 3 3 6 7 5 8 9 4 4 4 7 10 10 12 12 10 11 9 8 11 12 9 11 16 16 12 13 19 22 21 21 21 20 19 16 14 14 12 8 7 7 10 9 6 9 8 4 4 7 8 9 10 9 8 7 8 9 10 11
12 8 6 6 6 5 5 6 6 7 5 3 2 4 6 5 4 4 5 6 6 2 3 6 7 6 9 8 2 4 7 7 7 7 7 7 6 6 5 6 11 9 9 11 10 8 9 9 9 9 8 11 15 14 12 15 17 16 16 19 20 19 17 14 13 12 8 5 6 7 8 6 4 4 4 5 8 9 8 8 8 7 5 5 7 8 9 10
Wind_Direction
358 358 357 356 354 351 348 346 346 345 343 342 340 338 337 337 336 332 326 319 311 300 295 294 296 299 296 293 296 297 296 297 274 245 234 246 246 229 244 228 196 191 188 185 194 204 210 219 230 236 249 242 227 213 152 185 237 239 248 87 101 83 80 88 91 109 120 121 129 128 118 114 113 111 119 125 108 111 117 102 96 97 102 111 120 128 134 138
356 357 356 355 354 351 348 346 344 344 342 340 338 337 336 335 335 332 326 321 310 297 291 292 296 298 295 294 297 298 300 283 260 253 245 242 238 229 231 207 191 192 186 192 204 208 216 212 211 224 238 228 185 171 168 183 233 253 280 93 73 62 68 73 85 106 118 122 126 125 119 116 117 120 137 138 112 116 121 114 107 101 105 115 125 132 137 143
356 356 356 355 353 352 349 345 344 343 341 339 337 336 335 334 334 331 325 319 310 295 287 291 297 297 296 298 295 308 314 284 256 253 248 238 231 226 215 193 188 194 192 201 210 213 232 231 201 215 232 227 170 170 184 178 221 257 276 113 82 70 71 73 87 101 114 126 122 113 113 115 121 133 149 137 125 134 126 125 128 122 125 128 132 137 141 149
355 355 355 354 353 352 349 346 344 342 340 338 336 336 334 333 332 330 325 319 308 290 285 292 297 298 305 303 275 64 299 273 252 245 230 220 220 211 205 196 192 197 200 214 223 225 247 257 218 216 236 224 160 189 177 149 229 301 37 82 91 94 89 88 101 107 115 119 107 109 115 109 105 117 145 148 138 135 137 138 137 137 139 137 139 142 146 150
355 354 354 354 353 352 350 347 345 342 339 337 336 335 334 333 332 330 326 319 306 285 284 287 290 301 311 303 147 130 273 256 206 101 153 182 195 195 200 200 194 194 201 225 235 231 243 247 225 212 243 227 152 202 164 131 250 7 63 64 88 100 99 97 100 103 111 113 113 118 108 94 88 75 87 132 119 110 132 133 131 138 139 140 143 144 148 151
354 354 353 353 352 352 351 348 345 342 339 337 335 335 334 332 331 329 326 321 301 279 280 277 282 291 273 92 127 235 253 254 73 76 133 174 175 180 191 188 187 189 205 231 234 227 229 233 223 204 232 224 170 196 130 130 251 93 86 73 89 101 106 103 105 112 113 106 100 98 98 100 94 74 59 73 82 93 114 123 129 135 136 140 143 146 152 153
354 353 352 352 351 351 350 348 346 342 339 337 335 335 334 331 331 329 327 320 295 277 277 268 265 237 197 96 120 222 243 266 89 118 101 177 170 167 177 175 179 191 212 229 226 222 218 218 217 213 230 218 193 185 121 170 230 103 103 99 101 105 111 117 119 114 96 90 91 101 112 104 93 87 78 79 87 100 113 123 130 133 137 141 144 151 152 153
353 353 352 351 351 350 349 348 347 343 340 337 335 335 333 331 331 328 326 317 289 275 277 265 249 222 194 196 244 228 234 245 119 127 103 180 170 161 166 174 184 196 216 225 221 219 214 219 212 218 236 201 195 171 137 197 163 105 101 101 112 112 117 124 114 104 97 96 100 107 105 93 92 95 91 91 99 108 117 126 131 135 139 142 148 150 148 157
353 353 352 351 350 349 348 348 347 344 340 337 336 335 332 332 330 327 326 312 286 277 281 266 246 214 193 223 251 246 214 130 114 127 142 177 170 165 167 178 191 199 217 220 219 219 209 219 210 218 250 201 177 159 185 218 126 107 120 119 127 121 126 128 114 107 102 98 101 106 102 100 105 102 95 100 110 117 123 131 133 140 142 144 150 143 147 163
352 352 351 351 349 348 347 346 346 344 340 338 336 334 332 334 330 327 325 309 291 289 288 270 234 191 200 231 242 239 118 112 128 139 158 172 170 171 178 186 190 198 215 214 219 225 214 217 207 225 268 241 178 163 203 219 117 122 138 130 128 126 138 130 114 109 104 107 111 112 112 117 119 111 104 108 119 127 129 133 138 144 145 147 146 139 154 165
351 352 351 350 349 347 346 345 345 344 340 338 336 334 333 335 330 327 328 315 313 309 302 272 200 183 225 245 240 223 100 125 157 151 167 170 171 178 187 192 189 199 211 208 216 222 229 235 197 223 247 184 181 174 183 136 119 138 139 130 135 137 140 128 120 119 116 115 113 116 121 122 113 106 113 122 129 134 134 137 143 146 145 147 142 142 162 162
350 351 350 349 348 346 345 343 344 343 340 338 336 333 332 335 331 328 332 327 330 329 315 225 175 185 260 254 239 238 74 152 159 155 174 170 178 184 188 192 191 202 208 207 212 213 237 255 194 222 218 155 175 166 151 128 129 144 144 144 146 142 137 134 130 121 119 120 129 139 126 109 103 112 123 132 132 134 140 141 144 144 144 146 143 149 164 159
349 349 348 348 347 346 344 342 343 342 339 337 335 332 329 332 329 325 328 322 333 333 209 168 165 215 271 256 222 194 62 170 151 155 173 172 182 184 190 198 195 207 215 214 207 200 231 247 213 231 232 189 167 118 143 146 144 156 160 158 151 151 150 150 144 132 130 124 137 162 122 101 111 126 133 141 138 138 147 142 144 146 146 150 148 157 160 156
348 348 346 346 345 345 344 342 341 340 338 336 333 328 324 326 324 319 309 305 326 251 189 198 224 249 260 257 168 155 153 171 156 164 171 173 178 179 191 199 197 209 223 224 198 186 221 232 232 240 240 224 144 123 161 151 161 171 162 162 172 173 152 152 160 155 141 125 157 176 108 111 124 137 143 150 144 141 150 145 146 148 149 155 153 160 158 158
347 346 345 344 343 344 343 341 340 339 337 335 331 325 318 316 316 312 299 292 278 215 216 251 249 244 258 246 149 146 173 181 178 173 172 176 178 177 185 188 193 201 214 225 179 183 220 216 227 222 214 227 148 172 182 161 180 178 168 176 190 187 151 157 171 181 161 150 208 213 120 121 134 147 150 157 152 146 152 148 151 155 153 159 157 161 159 159
347 345 344 343 342 342 342 340 340 338 335 333 327 318 307 306 308 307 301 270 218 206 215 253 227 224 273 296 137 156 187 194 185 175 175 183 182 176 178 182 189 195 202 208 172 195 217 211 225 215 195 194 183 192 184 180 187 179 200 193 188 197 166 159 164 199 186 155 202 228 142 133 136 152 155 164 166 155 153 152 157 161 157 162 162 163 159 157
346 345 343 341 340 340 341 339 339 337 333 331 325 312 300 299 295 293 294 217 223 218 219 268 271 237 266 328 146 179 191 184 172 172 179 188 188 176 173 180 185 188 189 188 189 202 205 207 226 216 196 195 200 201 188 196 187 179 207 197 194 199 174 161 161 193 200 169 202 209 141 136 139 157 160 167 176 161 153 156 159 160 160 164 167 165 160 162
345 344 341 340 339 338 339 337 338 336 331 329 321 310 306 294 283 289 280 212 207 226 232 258 271 258 241 214 203 193 182 170 164 172 177 188 195 177 175 184 180 183 186 184 196 200 195 196 202 202 198 197 204 206 202 203 190 190 199 187 197 197 179 174 167 181 191 197 213 185 137 136 144 162 161 165 179 167 154 158 160 159 161 164 168 166 161 170
344 342 340 339 337 336 337 336 336 335 331 328 320 316 317 286 265 259 242 217 196 222 243 204 209 259 347 186 195 184 170 162 166 175 174 181 191 179 180 186 179 184 189 182 189 196 197 192 198 207 198 199 208 207 213 208 188 194 203 191 188 188 189 190 179 174 183 203 203 175 146 139 151 167 164 165 173 171 160 161 164 161 164 167 170 167 162 174
343 341 339 338 336 334 335 334 333 333 328 323 316 307 296 275 262 214 213 220 220 246 278 241 207 237 344 167 171 146 148 160 176 179 176 181 185 182 184 186 183 188 195 188 182 189 199 198 203 212 202 203 210 209 221 225 196 185 203 203 188 183 189 190 180 166 179 209 197 175 163 150 160 170 170 167 165 175 171 165 170 168 168 169 171 172 167 174
341 340 339 336 334 332 332 332 330 330 324 312 305 280 280 331 324 337 310 246 227 234 256 257 230 241 283 163 155 148 158 175 188 182 176 183 186 183 182 186 187 189 199 196 183 186 204 208 204 213 214 205 208 215 225 248 284 216 207 210 202 195 190 178 162 157 182 212 194 179 179 165 170 174 173 172 169 177 177 173 178 175 173 173 173 174 170 176
339 339 337 335 334 331 331 330 326 324 316 281 257 256 279 351 337 321 320 283 246 226 234 240 237 242 237 203 172 179 191 184 186 181 173 181 188 184 179 187 195 190 195 198 190 188 204 220 206 207 219 206 201 216 224 245 273 248 222 208 209 195 169 158 149 162 189 210 190 181 194 183 176 179 175 176 180 180 178 181 184 180 176 174 176 173 171 176
339 338 336 335 333 329 329 328 323 319 300 234 246 260 290 339 328 315 300 282 274 234 220 221 225 224 206 207 191 192 203 189 185 180 173 183 192 190 185 188 198 194 192 200 200 190 196 222 213 203 216 212 200 207 218 225 224 237 235 207 211 198 166 151 159 178 190 211 206 183 199 198 175 181 181 183 191 181 178 185 184 186 182 177 180 175 174 175
337 337 336 335 332 329 330 326 319 306 248 240 263 268 288 307 314 322 299 274 275 235 213 211 215 220 205 195 185 197 209 196 190 179 173 190 196 193 196 193 199 200 197 204 207 204 200 212 220 213 210 210 207 200 208 223 210 220 230 213 215 207 189 187 177 175 184 209 220 195 202 207 181 188 188 188 202 190 183 187 183 186 186 182 182 177 178 177
336 336 335 335 334 330 328 323 317 321 304 282 272 264 267 283 324 330 311 274 259 219 200 201 207 216 203 183 176 195 211 200 197 180 173 196 200 190 199 196 206 206 196 204 211 216 207 201 217 220 196 191 215 209 204 223 214 204 221 229 234 210 189 192 174 164 191 209 211 208 220 213 182 191 205 199 207 202 190 192 189 188 187 186 185 179 182 181
335 335 334 335 335 333 330 322 327 331 313 284 280 280 252 281 339 328 300 271 247 184 171 181 184 188 187 180 173 190 210 202 199 180 174 200 206 198 204 191 212 216 194 196 210 226 214 200 211 215 187 192 217 215 201 219 232 208 197 213 253 254 218 201 175 164 219 224 197 200 222 235 181 187 217 217 210 207 203 201 197 193 191 191 188 181 183 184
333 333 333 332 334 338 334 308 321 321 301 289 332 321 290 305 330 310 263 262 236 168 157 163 162 167 175 179 174 189 202 178 185 182 176 199 208 207 217 195 200 221 199 187 204 225 213 199 201 200 192 199 215 215 197 210 233 250 174 183 215 259 260 245 202 176 236 245 193 187 210 241 208 183 206 214 209 205 208 210 204 198 196 194 193 186 184 187
330 331 332 329 331 334 308 284 308 300 278 320 330 299 305 300 268 230 251 260 207 152 154 149 145 167 177 178 179 198 199 160 176 182 175 196 207 207 226 214 205 214 206 196 201 207 203 196 192 194 203 205 209 214 197 204 224 302 17 187 185 223 248 252 239 205 238 246 204 185 214 247 242 201 202 207 207 206 209 214 210 205 200 195 196 191 186 186
328 329 329 326 328 329 297 274 281 275 281 305 308 298 304 283 255 231 256 261 165 143 158 150 149 173 179 174 184 205 203 172 178 170 170 194 209 216 231 222 213 212 211 215 210 191 187 200 200 196 206 204 205 216 200 198 215 177 32 241 184 217 242 242 241 233 235 239 225 215 216 228 249 235 210 204 210 209 204 210 217 214 204 198 197 193 187 185
326 325 326 327 325 330 324 278 264 280 290 288 292 295 291 275 248 228 236 241 185 160 143 159 171 176 180 174 186 204 197 180 179 165 172 193 203 218 239 235 227 219 209 219 226 205 174 187 203 198 207 211 202 212 203 192 208 165 181 222 206 212 231 230 236 249 245 233 235 239 224 213 238 246 218 199 206 218 210 208 218 217 208 199 198 196 188 183
323 320 322 322 314 308 308 278 267 299 297 284 293 287 278 259 230 238 226 223 225 165 145 171 175 174 183 180 184 196 190 185 183 173 177 190 193 206 226 233 233 217 199 209 224 222 171 176 200 201 210 225 193 179 191 189 201 219 206 212 207 198 205 226 232 241 253 243 234 241 231 215 225 252 239 191 178 200 224 221 211 209 207 200 197 199 191 181
320 317 316 312 304 284 261 256 287 309 295 306 306 277 264 230 218 238 218 175 198 174 171 183 176 176 186 187 184 187 193 188 176 175 181 188 192 198 209 210 207 204 195 193 197 197 189 190 199 197 202 227 202 173 185 195 199 219 217 207 208 200 194 224 226 213 237 247 241 244 237 222 224 245 256 236 193 192 209 232 224 203 201 198 195 199 194 181
319 316 311 307 297 270 257 268 280 276 277 294 293 262 252 238 225 224 221 213 156 163 182 175 176 183 185 191 187 183 197 188 167 180 189 191 197 197 209 213 206 208 197 186 192 188 189 194 193 193 194 212 219 197 183 192 196 209 217 206 209 215 208 221 228 221 233 236 227 228 233 246 258 243 238 244 243 218 192 211 239 210 196 196 192 196 197 185
317 314 311 305 288 270 268 271 269 266 266 263 257 242 238 238 233 223 230 229 166 137 189 174 178 187 187 199 191 180 199 190 173 187 188 190 203 195 204 212 206 214 203 186 199 196 190 190 185 191 191 196 216 218 190 191 197 207 224 223 219 228 230 229 231 232 239 238 215 194 194 247 261 262 232 227 282 287 223 190 217 223 205 199 190 191 199 193
318 316 311 296 278 272 266 251 241 240 238 230 228 235 232 229 230 228 237 236 197 169 194 191 189 191 190 203 196 183 200 195 176 189 190 189 205 194 195 205 201 209 210 189 198 201 200 190 176 193 198 188 208 221 199 199 204 201 223 233 223 224 233 249 260 255 263 279 228 179 194 252 238 122 150 177 161 221 235 194 199 210 214 208 194 188 197 202
320 318 304 271 255 252 236 218 209 209 220 225 221 226 231 232 229 225 233 282 263 189 181 189 201 201 190 198 199 186 198 207 182 188 197 194 204 199 193 199 198 205 216 204 186 187 210 198 171 187 200 188 205 221 202 207 217 189 206 229 226 226 230 239 250 250 254 270 248 199 225 242 229 193 181 172 169 172 183 216 207 199 208 216 204 188 193 205
319 315 297 264 247 220 195 188 186 197 218 225 223 231 237 236 236 236 235 344 311 243 192 188 199 210 197 195 202 184 188 205 188 188 200 194 202 202 195 198 198 207 225 231 207 190 226 212 158 175 199 190 203 222 207 213 233 209 192 213 221 242 269 268 264 241 226 246 248 234 240 233 237 231 162 153 179 183 178 204 209 198 205 219 217 195 195 203
307 302 285 259 240 196 177 179 181 194 218 222 226 239 246 245 239 233 227 290 275 245 229 226 198 203 206 200 198 183 182 191 183 191 203 192 195 199 199 199 192 203 224 236 236 199 216 216 151 172 200 189 195 220 211 211 235 248 254 219 215 218 223 235 259 255 229 236 247 234 229 233 244 218 149 156 191 188 181 189 202 218 210 213 224 206 197 202
287 285 276 212 188 175 173 179 187 204 222 219 223 231 242 253 247 231 214 241 254 238 239 252 225 205 213 211 196 181 184 192 185 192 204 193 185 191 200 204 190 196 213 227 239 208 201 216 171 181 192 180 185 217 214 197 214 245 276 252 219 222 223 209 205 239 248 242 252 240 219 234 254 177 147 149 156 167 202 187 197 242 223 207 221 212 200 201
276 272 231 142 156 169 169 177 196 214 217 218 227 227 230 243 245 237 225 220 238 240 238 257 254 216 212 217 210 188 187 199 198 196 199 193 184 185 198 209 196 192 203 217 234 238 208 211 210 193 184 179 188 208 217 207 194 213 240 231 211 212 240 237 201 217 244 248 256 262 248 153 65 95 116 116 115 117 266 200 195 235 233 210 212 212 204 199
279 269 189 137 158 162 160 182 206 212 219 221 229 231 234 243 236 231 228 221 233 246 251 269 275 258 230 221 219 200 186 198 206 203 195 194 194 188 200 210 204 190 197 211 222 231 221 208 217 206 183 190 208 201 212 222 206 194 209 225 227 219 220 233 222 215 232 252 255 261 261 142 101 93 103 110 118 125 127 218 206 204 231 223 204 206 207 198
256 255 145 135 160 162 167 207 209 208 225 221 225 229 228 248 244 236 229 220 225 231 240 256 263 270 266 233 224 220 202 196 202 207 204 201 200 194 196 205 207 201 199 207 212 217 224 222 228 220 194 207 221 204 205 223 227 216 209 212 225 229 220 224 234 223 222 245 250 250 257 156 115 122 124 119 112 110 122 222 235 191 212 227 207 203 201 196
241 268 140 145 168 179 197 223 208 215 227 223 229 229 218 210 230 237 235 228 228 222 224 239 241 244 253 241 231 233 223 202 199 207 209 205 203 198 191 194 204 209 205 208 210 207 213 222 232 234 214 210 221 209 199 214 233 238 223 210 215 223 218 218 236 243 228 235 241 247 246 167 111 111 117 118 128 137 139 177 230 225 206 216 210 202 193 191
275 288 240 171 180 198 225 224 212 217 218 222 228 224 221 227 228 232 235 230 228 223 221 229 232 232 238 242 241 239 230 211 203 211 213 209 203 198 187 182 196 208 202 202 207 196 201 216 220 234 230 207 208 205 195 205 220 233 234 225 220 224 221 215 215 212 224 226 227 244 246 159 111 98 102 119 156 174 151 167 196 229 244 225 203 194 191 189
286 269 238 194 187 205 229 231 237 236 219 222 226 221 222 226 226 233 242 242 238 238 238 230 234 241 236 233 242 245 237 222 212 214 216 211 188 177 178 173 187 209 200 200 222 209 198 211 209 219 232 215 203 202 200 206 210 220 234 235 229 229 230 228 217 198 213 232 237 248 252 139 126 134 135 142 185 271 228 203 206 199 233 242 204 189 192 191
290 252 226 200 191 209 232 243 260 266 241 227 223 222 226 225 219 218 232 250 249 245 253 247 242 244 232 228 235 235 230 227 226 220 214 210 176 150 172 175 187 206 181 152 241 222 198 219 216 215 236 241 225 208 207 213 214 214 222 231 233 232 232 236 240 228 221 235 242 247 255 221 166 173 184 168 173 250 248 238 247 226 218 236 214 189 188 192
278 279 278 224 200 209 219 231 240 243 251 253 230 217 223 227 221 201 202 232 243 241 249 248 241 238 232 232 236 233 225 221 227 231 220 215 192 149 165 191 195 186 112 133 223 212 204 227 219 213 231 248 247 227 215 216 220 217 215 223 231 233 232 232 237 239 230 234 241 233 237 251 246 239 259 290 243 243 256 257 259 253 231 223 213 197 191 190
278 296 320 343 273 228 218 226 233 233 237 247 245 222 222 226 224 210 201 218 231 236 241 238 233 232 232 231 237 246 237 220 216 218 216 220 210 161 157 203 203 170 161 207 209 204 225 232 224 219 226 238 246 242 233 226 225 223 219 221 226 228 230 232 237 238 232 236 248 230 214 244 260 264 279 299 289 259 267 270 265 260 248 230 212 201 196 193
318 309 322 339 308 275 278 299 267 250 244 239 234 227 229 232 229 223 222 229 228 226 236 244 234 225 222 224 234 252 256 242 219 208 218 243 224 188 166 204 203 181 194 211 203 207 233 231 224 229 229 227 234 240 241 243 242 236 232 229 227 225 224 227 234 237 235 237 238 226 226 241 257 270 282 301 305 289 281 281 274 262 256 245 221 207 203 200
337 322 335 330 304 280 282 285 256 246 242 233 229 226 230 237 235 222 210 233 239 223 220 252 247 235 234 238 238 241 318 355 299 241 329 311 238 205 198 203 198 189 202 219 208 200 216 220 219 232 237 230 230 232 231 233 239 243 242 239 237 237 232 230 231 233 236 238 229 229 245 247 248 267 272 275 287 275 263 265 266 262 258 251 235 220 212 207
328 311 317 308 298 288 270 255 244 243 233 217 218 224 227 231 240 241 213 225 256 279 327 288 282 283 263 239 228 236 18 356 328 328 338 327 296 277 268 219 210 200 198 217 216 194 203 226 228 233 242 243 243 239 232 234 240 242 243 241 238 239 240 237 235 236 238 239 228 232 250 254 256 267 263 227 223 256 262 263 265 262 257 254 248 237 224 215
336 320 313 294 286 286 264 242 234 237 236 214 198 213 221 224 239 259 239 211 215 248 335 315 309 292 258 234 196 11 348 323 310 316 313 303 297 297 289 248 238 226 201 209 215 201 209 228 233 228 230 240 242 237 235 241 243 239 238 239 240 241 243 241 237 240 247 244 239 243 250 260 281 285 270 258 261 272 279 283 282 273 260 258 257 251 238 222